{"data":{"norad_id":58668,"intl_designator":"2023-211B","name":"STARLINK-31113","alt_names":[],"object_type":"PAYLOAD","status":"ACTIVE","operator":null,"country":"US","launch_date":"2023-12-29","launch_site_code":"AFETR","launch_vehicle":null,"mission":null,"orbit_class":"UNKNOWN","rcs_meters":null,"size_class":null,"mass_kg":null,"dimensions":null,"purposes":["comms"],"wikipedia_slug":null,"has_3d_model":false,"image_url":null,"decayed_at":null,"tle_current":{"epoch":"2026-05-25T00:45:49.368096Z","epoch_age_seconds":62434,"freshness":"FRESH","line1":"1 58668U 23211B   26145.03182139  .00000444  00000+0  25670-4 0  9992","line2":"2 58668  43.0041  13.8389 0001326 251.4146 108.6561 15.27576601134144","mean_motion":15.27576601,"eccentricity":0.0001326,"inclination_deg":43.0041,"raan_deg":13.8389,"arg_perigee_deg":251.4146,"mean_anomaly_deg":108.6561,"bstar":2.567e-5,"rev_number":13414,"period_min":94.266958465934,"perigee_km":482.14947926139,"apogee_km":483.96906851323,"semimajor_km":6861.1962738873,"source":"CELESTRAK","updated_at":"2026-05-25T13:38:18.709920Z"}}}